Year,Month,Day,Hour,Minute,Value (Times are PST for temperature in C)
2017,05,27,00,00,15.10
2017,05,27,00,01,15.10
2017,05,27,00,02,15.10
2017,05,27,00,03,15.10
2017,05,27,00,04,15.10
2017,05,27,00,05,15.10
2017,05,27,00,06,15.10
2017,05,27,00,07,15.10
2017,05,27,00,08,15.10
2017,05,27,00,09,15.10
2017,05,27,00,10,15.10
2017,05,27,00,11,15.00
2017,05,27,00,12,15.00
2017,05,27,00,13,15.00
2017,05,27,00,14,15.00
2017,05,27,00,15,15.00
2017,05,27,00,16,14.90
2017,05,27,00,17,14.90
2017,05,27,00,18,14.90
2017,05,27,00,19,14.90
2017,05,27,00,20,14.80
2017,05,27,00,21,14.80
2017,05,27,00,22,14.80
2017,05,27,00,23,14.80
2017,05,27,00,24,14.80
2017,05,27,00,25,14.80
2017,05,27,00,26,14.70
2017,05,27,00,27,14.70
2017,05,27,00,28,14.60
2017,05,27,00,29,14.50
2017,05,27,00,30,14.50
2017,05,27,00,31,14.40
2017,05,27,00,32,14.40
2017,05,27,00,33,14.30
2017,05,27,00,34,14.20
2017,05,27,00,35,14.20
2017,05,27,00,36,14.10
2017,05,27,00,37,14.00
2017,05,27,00,38,13.90
2017,05,27,00,39,13.90
2017,05,27,00,40,13.80
2017,05,27,00,41,13.80
2017,05,27,00,42,13.70
2017,05,27,00,43,13.70
2017,05,27,00,44,13.60
2017,05,27,00,45,13.60
2017,05,27,00,46,13.50
2017,05,27,00,47,13.50
2017,05,27,00,48,13.40
2017,05,27,00,49,13.30
2017,05,27,00,50,13.30
2017,05,27,00,51,13.20
2017,05,27,00,52,13.10
2017,05,27,00,53,13.00
2017,05,27,00,54,13.00
2017,05,27,00,55,12.90
2017,05,27,00,56,12.90
2017,05,27,00,57,12.80
2017,05,27,00,58,12.80
2017,05,27,00,59,12.80
2017,05,27,01,00,12.80
2017,05,27,01,01,12.80
2017,05,27,01,02,12.80
2017,05,27,01,03,12.80
2017,05,27,01,04,12.70
2017,05,27,01,05,12.70
2017,05,27,01,06,12.70
2017,05,27,01,07,12.60
2017,05,27,01,08,12.60
2017,05,27,01,09,12.60
2017,05,27,01,10,12.60
2017,05,27,01,11,12.50
2017,05,27,01,12,12.50
2017,05,27,01,13,12.50
2017,05,27,01,14,12.40
2017,05,27,01,15,12.40
2017,05,27,01,16,12.40
2017,05,27,01,17,12.30
2017,05,27,01,18,12.30
2017,05,27,01,19,12.30
2017,05,27,01,20,12.30
2017,05,27,01,21,12.20
2017,05,27,01,22,12.20
2017,05,27,01,23,12.10
2017,05,27,01,24,12.10
2017,05,27,01,25,12.00
2017,05,27,01,26,12.00
2017,05,27,01,27,12.00
2017,05,27,01,28,12.00
2017,05,27,01,29,12.00
2017,05,27,01,30,12.00
2017,05,27,01,31,12.00
2017,05,27,01,32,11.90
2017,05,27,01,33,11.90
2017,05,27,01,34,11.90
2017,05,27,01,35,11.90
2017,05,27,01,36,11.90
2017,05,27,01,37,11.90
2017,05,27,01,38,11.90
2017,05,27,01,39,11.90
2017,05,27,01,40,11.90
2017,05,27,01,41,11.90
2017,05,27,01,42,11.90
2017,05,27,01,43,11.90
2017,05,27,01,44,12.00
2017,05,27,01,45,12.00
2017,05,27,01,46,12.00
2017,05,27,01,47,12.00
2017,05,27,01,48,11.90
2017,05,27,01,49,11.90
2017,05,27,01,50,11.90
2017,05,27,01,51,11.90
2017,05,27,01,52,11.90
2017,05,27,01,53,11.90
2017,05,27,01,54,11.90
2017,05,27,01,55,11.80
2017,05,27,01,56,11.80
2017,05,27,01,57,11.80
2017,05,27,01,58,11.80
2017,05,27,01,59,11.70
2017,05,27,02,00,11.70
2017,05,27,02,01,11.60
2017,05,27,02,02,11.60
2017,05,27,02,03,11.60
2017,05,27,02,04,11.60
2017,05,27,02,05,11.60
2017,05,27,02,06,11.60
2017,05,27,02,07,11.60
2017,05,27,02,08,11.60
2017,05,27,02,09,11.40
2017,05,27,02,10,11.40
2017,05,27,02,11,11.40
2017,05,27,02,12,11.40
2017,05,27,02,13,11.40
2017,05,27,02,14,11.40
2017,05,27,02,15,11.40
2017,05,27,02,16,11.40
2017,05,27,02,17,11.40
2017,05,27,02,18,11.40
2017,05,27,02,19,11.40
2017,05,27,02,20,11.30
2017,05,27,02,21,11.30
2017,05,27,02,22,11.30
2017,05,27,02,23,11.30
2017,05,27,02,24,11.40
2017,05,27,02,25,11.40
2017,05,27,02,26,11.40
2017,05,27,02,27,11.40
2017,05,27,02,28,11.40
2017,05,27,02,29,11.40
2017,05,27,02,30,11.40
2017,05,27,02,31,11.40
2017,05,27,02,32,11.40
2017,05,27,02,33,11.40
2017,05,27,02,34,11.40
2017,05,27,02,35,11.30
2017,05,27,02,36,11.30
2017,05,27,02,37,11.30
2017,05,27,02,38,11.30
2017,05,27,02,39,11.30
2017,05,27,02,40,11.30
2017,05,27,02,41,11.30
2017,05,27,02,42,11.20
2017,05,27,02,43,11.20
2017,05,27,02,44,11.20
2017,05,27,02,45,11.20
2017,05,27,02,46,11.20
2017,05,27,02,47,11.20
2017,05,27,02,48,11.30
2017,05,27,02,49,11.30
2017,05,27,02,50,11.30
2017,05,27,02,51,11.30
2017,05,27,02,52,11.30
2017,05,27,02,53,11.30
2017,05,27,02,54,11.20
2017,05,27,02,55,11.20
2017,05,27,02,56,11.20
2017,05,27,02,57,11.20
2017,05,27,02,58,11.20
2017,05,27,02,59,11.20
2017,05,27,03,00,11.20
2017,05,27,03,01,11.20
2017,05,27,03,02,11.20
2017,05,27,03,03,11.20
2017,05,27,03,04,11.20
2017,05,27,03,05,11.20
2017,05,27,03,06,11.20
2017,05,27,03,07,11.20
2017,05,27,03,08,11.20
2017,05,27,03,09,11.20
2017,05,27,03,10,11.20
2017,05,27,03,11,11.20
2017,05,27,03,12,11.20
2017,05,27,03,13,11.20
2017,05,27,03,14,11.20
2017,05,27,03,15,11.20
2017,05,27,03,16,11.20
2017,05,27,03,17,11.20
2017,05,27,03,18,11.20
2017,05,27,03,19,11.20
2017,05,27,03,20,11.20
2017,05,27,03,21,11.20
2017,05,27,03,22,11.20
2017,05,27,03,23,11.10
2017,05,27,03,24,11.10
2017,05,27,03,25,11.10
2017,05,27,03,26,11.10
2017,05,27,03,27,11.10
2017,05,27,03,28,11.10
2017,05,27,03,29,11.10
2017,05,27,03,30,11.10
2017,05,27,03,31,11.10
2017,05,27,03,32,11.10
2017,05,27,03,33,11.10
2017,05,27,03,34,11.10
2017,05,27,03,35,11.10
2017,05,27,03,36,11.10
2017,05,27,03,37,11.10
2017,05,27,03,38,11.10
2017,05,27,03,39,11.10
2017,05,27,03,40,11.10
2017,05,27,03,41,11.10
2017,05,27,03,42,11.10
2017,05,27,03,43,11.10
2017,05,27,03,44,11.10
2017,05,27,03,45,11.10
2017,05,27,03,46,11.00
2017,05,27,03,47,11.00
2017,05,27,03,48,11.10
2017,05,27,03,49,11.10
2017,05,27,03,50,11.10
2017,05,27,03,51,11.10
2017,05,27,03,52,11.10
2017,05,27,03,53,11.10
2017,05,27,03,54,11.10
2017,05,27,03,55,10.90
2017,05,27,03,56,10.90
2017,05,27,03,57,10.90
2017,05,27,03,58,10.90
2017,05,27,03,59,10.90
2017,05,27,04,00,10.90
2017,05,27,04,01,10.90
2017,05,27,04,02,10.90
2017,05,27,04,03,10.90
2017,05,27,04,04,10.90
2017,05,27,04,05,10.90
2017,05,27,04,06,10.90
2017,05,27,04,07,10.90
2017,05,27,04,08,10.80
2017,05,27,04,09,10.80
2017,05,27,04,10,10.80
2017,05,27,04,11,10.80
2017,05,27,04,12,10.80
2017,05,27,04,13,10.70
2017,05,27,04,14,10.70
2017,05,27,04,15,10.70
2017,05,27,04,16,10.60
2017,05,27,04,17,10.60
2017,05,27,04,18,10.60
2017,05,27,04,19,10.60
2017,05,27,04,20,10.60
2017,05,27,04,21,10.60
2017,05,27,04,22,10.60
2017,05,27,04,23,10.60
2017,05,27,04,24,10.60
2017,05,27,04,25,10.60
2017,05,27,04,26,10.60
2017,05,27,04,27,10.60
2017,05,27,04,28,10.60
2017,05,27,04,29,10.60
2017,05,27,04,30,10.60
2017,05,27,04,31,10.60
2017,05,27,04,32,10.60
2017,05,27,04,33,10.60
2017,05,27,04,34,10.60
2017,05,27,04,35,10.60
2017,05,27,04,36,10.50
2017,05,27,04,37,10.40
2017,05,27,04,38,10.40
2017,05,27,04,39,10.40
2017,05,27,04,40,10.40
2017,05,27,04,41,10.50
2017,05,27,04,42,10.60
2017,05,27,04,43,10.60
2017,05,27,04,44,10.50
2017,05,27,04,45,10.40
2017,05,27,04,46,10.40
2017,05,27,04,47,10.40
2017,05,27,04,48,10.40
2017,05,27,04,49,10.40
2017,05,27,04,50,10.40
2017,05,27,04,51,10.40
2017,05,27,04,52,10.40
2017,05,27,04,53,10.40
2017,05,27,04,54,10.40
2017,05,27,04,55,10.40
2017,05,27,04,56,10.40
2017,05,27,04,57,10.40
2017,05,27,04,58,10.40
2017,05,27,04,59,10.40
2017,05,27,05,00,10.40
2017,05,27,05,01,10.40
2017,05,27,05,02,10.40
2017,05,27,05,03,10.40
2017,05,27,05,04,10.40
2017,05,27,05,05,10.30
2017,05,27,05,06,10.30
2017,05,27,05,07,10.30
2017,05,27,05,08,10.30
2017,05,27,05,09,10.30
2017,05,27,05,10,10.30
2017,05,27,05,11,10.30
2017,05,27,05,12,10.20
2017,05,27,05,13,10.30
2017,05,27,05,14,10.30
2017,05,27,05,15,10.30
2017,05,27,05,16,10.30
2017,05,27,05,17,10.30
2017,05,27,05,18,10.30
2017,05,27,05,19,10.30
2017,05,27,05,20,10.30
2017,05,27,05,21,10.30
2017,05,27,05,22,10.20
2017,05,27,05,23,10.20
2017,05,27,05,24,10.20
2017,05,27,05,25,10.20
2017,05,27,05,26,10.20
2017,05,27,05,27,10.20
2017,05,27,05,28,10.20
2017,05,27,05,29,10.20
2017,05,27,05,30,10.20
2017,05,27,05,31,10.20
2017,05,27,05,32,10.20
2017,05,27,05,33,10.20
2017,05,27,05,34,10.20
2017,05,27,05,35,10.20
2017,05,27,05,36,10.20
2017,05,27,05,37,10.20
2017,05,27,05,38,10.20
2017,05,27,05,39,10.20
2017,05,27,05,40,10.20
2017,05,27,05,41,10.30
2017,05,27,05,42,10.30
2017,05,27,05,43,10.30
2017,05,27,05,44,10.30
2017,05,27,05,45,10.30
2017,05,27,05,46,10.30
2017,05,27,05,47,10.30
2017,05,27,05,48,10.30
2017,05,27,05,49,10.30
2017,05,27,05,50,10.30
2017,05,27,05,51,10.30
2017,05,27,05,52,10.30
2017,05,27,05,53,10.30
2017,05,27,05,54,10.30
2017,05,27,05,55,10.30
2017,05,27,05,56,10.40
2017,05,27,05,57,10.40
2017,05,27,05,58,10.40
2017,05,27,05,59,10.40
2017,05,27,06,00,10.40
2017,05,27,06,01,10.40
2017,05,27,06,02,10.40
2017,05,27,06,03,10.40
2017,05,27,06,04,10.50
2017,05,27,06,05,10.60
2017,05,27,06,06,10.60
2017,05,27,06,07,10.60
2017,05,27,06,08,10.60
2017,05,27,06,09,10.60
2017,05,27,06,10,10.60
2017,05,27,06,11,10.60
2017,05,27,06,12,10.60
2017,05,27,06,13,10.60
2017,05,27,06,14,10.60
2017,05,27,06,15,10.60
2017,05,27,06,16,10.70
2017,05,27,06,17,10.70
2017,05,27,06,18,10.70
2017,05,27,06,19,10.70
2017,05,27,06,20,10.70
2017,05,27,06,21,10.80
2017,05,27,06,22,10.80
2017,05,27,06,23,10.80
2017,05,27,06,24,10.80
2017,05,27,06,25,10.80
2017,05,27,06,26,10.90
2017,05,27,06,27,10.90
2017,05,27,06,28,10.90
2017,05,27,06,29,10.90
2017,05,27,06,30,10.90
2017,05,27,06,31,11.10
2017,05,27,06,32,11.10
2017,05,27,06,33,11.10
2017,05,27,06,34,11.10
2017,05,27,06,35,11.20
2017,05,27,06,36,11.20
2017,05,27,06,37,11.30
2017,05,27,06,38,11.30
2017,05,27,06,39,11.30
2017,05,27,06,40,11.40
2017,05,27,06,41,11.40
2017,05,27,06,42,11.40
2017,05,27,06,43,11.40
2017,05,27,06,44,11.40
2017,05,27,06,45,11.40
2017,05,27,06,46,11.40
2017,05,27,06,47,11.40
2017,05,27,06,48,11.50
2017,05,27,06,49,11.60
2017,05,27,06,50,11.60
2017,05,27,06,51,11.60
2017,05,27,06,52,11.70
2017,05,27,06,53,11.80
2017,05,27,06,54,11.80
2017,05,27,06,55,11.80
2017,05,27,06,56,11.90
2017,05,27,06,57,11.90
2017,05,27,06,58,11.90
2017,05,27,06,59,11.90
2017,05,27,07,00,11.90
2017,05,27,07,01,11.90
2017,05,27,07,02,11.80
2017,05,27,07,03,11.80
2017,05,27,07,04,11.80
2017,05,27,07,05,11.80
2017,05,27,07,06,11.80
2017,05,27,07,07,11.80
2017,05,27,07,08,11.80
2017,05,27,07,09,11.80
2017,05,27,07,10,11.80
2017,05,27,07,11,11.80
2017,05,27,07,12,11.80
2017,05,27,07,13,11.80
2017,05,27,07,14,11.80
2017,05,27,07,15,11.80
2017,05,27,07,16,11.70
2017,05,27,07,17,11.70
2017,05,27,07,18,11.60
2017,05,27,07,19,11.60
2017,05,27,07,20,11.60
2017,05,27,07,21,11.60
2017,05,27,07,22,11.60
2017,05,27,07,23,11.50
2017,05,27,07,24,11.40
2017,05,27,07,25,11.40
2017,05,27,07,26,11.40
2017,05,27,07,27,11.40
2017,05,27,07,28,11.40
2017,05,27,07,29,11.40
2017,05,27,07,30,11.40
2017,05,27,07,31,11.40
2017,05,27,07,32,11.40
2017,05,27,07,33,11.40
2017,05,27,07,34,11.40
2017,05,27,07,35,11.50
2017,05,27,07,36,11.60
2017,05,27,07,37,11.60
2017,05,27,07,38,11.60
2017,05,27,07,39,11.60
2017,05,27,07,40,11.70
2017,05,27,07,41,11.70
2017,05,27,07,42,11.80
2017,05,27,07,43,11.80
2017,05,27,07,44,11.80
2017,05,27,07,45,11.90
2017,05,27,07,46,12.00
2017,05,27,07,47,12.00
2017,05,27,07,48,12.10
2017,05,27,07,49,12.10
2017,05,27,07,50,12.10
2017,05,27,07,51,12.20
2017,05,27,07,52,12.20
2017,05,27,07,53,12.20
2017,05,27,07,54,12.20
2017,05,27,07,55,12.30
2017,05,27,07,56,12.30
2017,05,27,07,57,12.30
2017,05,27,07,58,12.30
2017,05,27,07,59,12.30
2017,05,27,08,00,12.30
2017,05,27,08,01,12.30
2017,05,27,08,02,12.30
2017,05,27,08,03,12.30
2017,05,27,08,04,12.30
2017,05,27,08,05,12.40
2017,05,27,08,06,12.40
2017,05,27,08,07,12.40
2017,05,27,08,08,12.30
2017,05,27,08,09,12.30
2017,05,27,08,10,12.30
2017,05,27,08,11,12.30
2017,05,27,08,12,12.30
2017,05,27,08,13,12.30
2017,05,27,08,14,12.40
2017,05,27,08,15,12.40
2017,05,27,08,16,12.50
2017,05,27,08,17,12.50
2017,05,27,08,18,12.60
2017,05,27,08,19,12.60
2017,05,27,08,20,12.70
2017,05,27,08,21,12.70
2017,05,27,08,22,12.80
2017,05,27,08,23,12.80
2017,05,27,08,24,12.90
2017,05,27,08,25,13.00
2017,05,27,08,26,13.10
2017,05,27,08,27,13.30
2017,05,27,08,28,13.60
2017,05,27,08,29,13.80
2017,05,27,08,30,14.00
2017,05,27,08,31,14.30
2017,05,27,08,32,14.60
2017,05,27,08,33,14.80
2017,05,27,08,34,15.00
2017,05,27,08,35,15.30
2017,05,27,08,36,15.40
2017,05,27,08,37,15.60
2017,05,27,08,38,15.80
2017,05,27,08,39,15.90
2017,05,27,08,40,16.00
2017,05,27,08,41,16.10
2017,05,27,08,42,16.20
2017,05,27,08,43,16.30
2017,05,27,08,44,16.40
2017,05,27,08,45,16.50
2017,05,27,08,46,16.60
2017,05,27,08,47,16.70
2017,05,27,08,48,16.80
2017,05,27,08,49,16.90
2017,05,27,08,50,17.00
2017,05,27,08,51,17.10
2017,05,27,08,52,17.10
2017,05,27,08,53,17.20
2017,05,27,08,54,17.30
2017,05,27,08,55,17.30
2017,05,27,08,56,17.30
2017,05,27,08,57,17.30
2017,05,27,08,58,17.30
2017,05,27,08,59,17.30
2017,05,27,09,00,17.40
2017,05,27,09,01,17.40
2017,05,27,09,02,17.50
2017,05,27,09,03,17.50
2017,05,27,09,04,17.50
2017,05,27,09,05,17.60
2017,05,27,09,06,17.60
2017,05,27,09,07,17.60
2017,05,27,09,08,17.60
2017,05,27,09,09,17.50
2017,05,27,09,10,17.50
2017,05,27,09,11,17.50
2017,05,27,09,12,17.60
2017,05,27,09,13,17.60
2017,05,27,09,14,17.60
2017,05,27,09,15,17.60
2017,05,27,09,16,17.60
2017,05,27,09,17,17.60
2017,05,27,09,18,17.60
2017,05,27,09,19,17.70
2017,05,27,09,20,17.70
2017,05,27,09,21,17.70
2017,05,27,09,22,17.80
2017,05,27,09,23,17.80
2017,05,27,09,24,17.70
2017,05,27,09,25,17.70
2017,05,27,09,26,17.80
2017,05,27,09,27,17.80
2017,05,27,09,28,17.80
2017,05,27,09,29,17.80
2017,05,27,09,30,17.80
2017,05,27,09,31,17.80
2017,05,27,09,32,17.80
2017,05,27,09,33,17.80
2017,05,27,09,34,17.80
2017,05,27,09,35,17.80
2017,05,27,09,36,17.70
2017,05,27,09,37,17.70
2017,05,27,09,38,17.70
2017,05,27,09,39,17.70
2017,05,27,09,40,17.70
2017,05,27,09,41,17.60
2017,05,27,09,42,17.60
2017,05,27,09,43,17.50
2017,05,27,09,44,17.50
2017,05,27,09,45,17.40
2017,05,27,09,46,17.30
2017,05,27,09,47,17.30
2017,05,27,09,48,17.30
2017,05,27,09,49,17.30
2017,05,27,09,50,17.20
2017,05,27,09,51,17.10
2017,05,27,09,52,16.90
2017,05,27,09,53,16.80
2017,05,27,09,54,16.60
2017,05,27,09,55,16.40
2017,05,27,09,56,16.20
2017,05,27,09,57,16.00
2017,05,27,09,58,15.80
2017,05,27,09,59,15.80
2017,05,27,10,00,15.80
2017,05,27,10,01,15.80
2017,05,27,10,02,15.80
2017,05,27,10,03,15.80
2017,05,27,10,04,15.80
2017,05,27,10,05,15.80
2017,05,27,10,06,15.80
2017,05,27,10,07,15.80
2017,05,27,10,08,15.80
2017,05,27,10,09,15.80
2017,05,27,10,10,15.80
2017,05,27,10,11,15.90
2017,05,27,10,12,16.00
2017,05,27,10,13,16.10
2017,05,27,10,14,16.20
2017,05,27,10,15,16.30
2017,05,27,10,16,16.40
2017,05,27,10,17,16.50
2017,05,27,10,18,16.60
2017,05,27,10,19,16.70
2017,05,27,10,20,16.90
2017,05,27,10,21,17.00
2017,05,27,10,22,17.20
2017,05,27,10,23,17.30
2017,05,27,10,24,17.40
2017,05,27,10,25,17.50
2017,05,27,10,26,17.60
2017,05,27,10,27,17.60
2017,05,27,10,28,17.70
2017,05,27,10,29,17.80
2017,05,27,10,30,17.90
2017,05,27,10,31,18.10
2017,05,27,10,32,18.20
2017,05,27,10,33,18.30
2017,05,27,10,34,18.40
2017,05,27,10,35,18.50
2017,05,27,10,36,18.60
2017,05,27,10,37,18.70
2017,05,27,10,38,18.80
2017,05,27,10,39,18.90
2017,05,27,10,40,18.90
2017,05,27,10,41,19.00
2017,05,27,10,42,19.10
2017,05,27,10,43,19.20
2017,05,27,10,44,19.20
2017,05,27,10,45,19.30
2017,05,27,10,46,19.30
2017,05,27,10,47,19.40
2017,05,27,10,48,19.50
2017,05,27,10,49,19.60
2017,05,27,10,50,19.60
2017,05,27,10,51,19.70
2017,05,27,10,52,19.80
2017,05,27,10,53,19.90
2017,05,27,10,54,19.90
2017,05,27,10,55,19.90
2017,05,27,10,56,19.90
2017,05,27,10,57,19.90
2017,05,27,10,58,19.90
2017,05,27,10,59,19.90
2017,05,27,11,00,19.90
2017,05,27,11,01,19.80
2017,05,27,11,02,19.80
2017,05,27,11,03,19.90
2017,05,27,11,04,19.90
2017,05,27,11,05,19.90
2017,05,27,11,06,19.90
2017,05,27,11,07,19.90
2017,05,27,11,08,19.90
2017,05,27,11,09,19.90
2017,05,27,11,10,19.90
2017,05,27,11,11,19.90
2017,05,27,11,12,19.90
2017,05,27,11,13,19.90
2017,05,27,11,14,19.90
2017,05,27,11,15,19.80
2017,05,27,11,16,19.80
2017,05,27,11,17,19.80
2017,05,27,11,18,19.70
2017,05,27,11,19,19.70
2017,05,27,11,20,19.70
2017,05,27,11,21,19.70
2017,05,27,11,22,19.70
2017,05,27,11,23,19.80
2017,05,27,11,24,19.70
2017,05,27,11,25,19.80
2017,05,27,11,26,19.80
2017,05,27,11,27,19.80
2017,05,27,11,28,19.90
2017,05,27,11,29,19.90
2017,05,27,11,30,19.90
2017,05,27,11,31,19.80
2017,05,27,11,32,19.80
2017,05,27,11,33,19.90
2017,05,27,11,34,19.90
2017,05,27,11,35,19.90
2017,05,27,11,36,19.90
2017,05,27,11,37,19.80
2017,05,27,11,38,19.80
2017,05,27,11,39,19.90
2017,05,27,11,40,19.90
2017,05,27,11,41,20.10
2017,05,27,11,42,20.10
2017,05,27,11,43,20.20
2017,05,27,11,44,20.20
2017,05,27,11,45,20.20
2017,05,27,11,46,20.30
2017,05,27,11,47,20.30
2017,05,27,11,48,20.30
2017,05,27,11,49,20.30
2017,05,27,11,50,20.20
2017,05,27,11,51,20.20
2017,05,27,11,52,20.20
2017,05,27,11,53,19.90
2017,05,27,11,54,19.50
2017,05,27,11,55,19.30
2017,05,27,11,56,19.10
2017,05,27,11,57,19.10
2017,05,27,11,58,19.00
2017,05,27,11,59,18.80
2017,05,27,12,00,18.50
2017,05,27,12,01,18.20
2017,05,27,12,02,18.00
2017,05,27,12,03,17.70
2017,05,27,12,04,17.50
2017,05,27,12,05,17.40
2017,05,27,12,06,17.30
2017,05,27,12,07,17.30
2017,05,27,12,08,17.20
2017,05,27,12,09,17.20
2017,05,27,12,10,17.10
2017,05,27,12,11,17.00
2017,05,27,12,12,16.90
2017,05,27,12,13,16.70
2017,05,27,12,14,16.70
2017,05,27,12,15,16.60
2017,05,27,12,16,16.60
2017,05,27,12,17,16.60
2017,05,27,12,18,16.60
2017,05,27,12,19,16.60
2017,05,27,12,20,16.60
2017,05,27,12,21,16.60
2017,05,27,12,22,16.50
2017,05,27,12,23,16.60
2017,05,27,12,24,16.60
2017,05,27,12,25,16.70
2017,05,27,12,26,16.70
2017,05,27,12,27,16.80
2017,05,27,12,28,16.90
2017,05,27,12,29,17.00
2017,05,27,12,30,17.20
2017,05,27,12,31,17.30
2017,05,27,12,32,17.30
2017,05,27,12,33,17.30
2017,05,27,12,34,17.20
2017,05,27,12,35,17.00
2017,05,27,12,36,17.00
2017,05,27,12,37,17.00
2017,05,27,12,38,17.00
2017,05,27,12,39,17.00
2017,05,27,12,40,17.10
2017,05,27,12,41,17.10
2017,05,27,12,42,17.20
2017,05,27,12,43,17.20
2017,05,27,12,44,17.20
2017,05,27,12,45,17.20
2017,05,27,12,46,17.20
2017,05,27,12,47,17.20
2017,05,27,12,48,17.20
2017,05,27,12,49,17.30
2017,05,27,12,50,17.30
2017,05,27,12,51,17.30
2017,05,27,12,52,17.40
2017,05,27,12,53,17.40
2017,05,27,12,54,17.40
2017,05,27,12,55,17.40
2017,05,27,12,56,17.40
2017,05,27,12,57,17.40
2017,05,27,12,58,17.50
2017,05,27,12,59,17.60
2017,05,27,13,00,17.70
2017,05,27,13,01,17.80
2017,05,27,13,02,17.90
2017,05,27,13,03,18.00
2017,05,27,13,04,18.20
2017,05,27,13,05,18.20
2017,05,27,13,06,18.30
2017,05,27,13,07,18.40
2017,05,27,13,08,18.40
2017,05,27,13,09,18.50
2017,05,27,13,10,18.50
2017,05,27,13,11,18.60
2017,05,27,13,12,18.60
2017,05,27,13,13,18.70
2017,05,27,13,14,18.70
2017,05,27,13,15,18.70
2017,05,27,13,16,18.80
2017,05,27,13,17,18.90
2017,05,27,13,18,18.90
2017,05,27,13,19,18.90
2017,05,27,13,20,18.90
2017,05,27,13,21,19.10
2017,05,27,13,22,19.10
2017,05,27,13,23,19.10
2017,05,27,13,24,19.10
2017,05,27,13,25,19.10
2017,05,27,13,26,19.10
2017,05,27,13,27,19.10
2017,05,27,13,28,19.00
2017,05,27,13,29,18.90
2017,05,27,13,30,18.90
2017,05,27,13,31,18.90
2017,05,27,13,32,18.90
2017,05,27,13,33,18.80
2017,05,27,13,34,18.70
2017,05,27,13,35,18.70
2017,05,27,13,36,18.60
2017,05,27,13,37,18.60
2017,05,27,13,38,18.50
2017,05,27,13,39,18.40
2017,05,27,13,40,18.40
2017,05,27,13,41,18.40
2017,05,27,13,42,18.40
2017,05,27,13,43,18.30
2017,05,27,13,44,18.20
2017,05,27,13,45,18.20
2017,05,27,13,46,18.20
2017,05,27,13,47,18.20
2017,05,27,13,48,18.20
2017,05,27,13,49,18.20
2017,05,27,13,50,18.20
2017,05,27,13,51,18.20
2017,05,27,13,52,18.20
2017,05,27,13,53,18.20
2017,05,27,13,54,18.20
2017,05,27,13,55,18.20
2017,05,27,13,56,18.20
2017,05,27,13,57,18.20
2017,05,27,13,58,18.20
2017,05,27,13,59,18.20
2017,05,27,14,00,18.30
2017,05,27,14,01,18.40
2017,05,27,14,02,18.40
2017,05,27,14,03,18.50
2017,05,27,14,04,18.50
2017,05,27,14,05,18.60
2017,05,27,14,06,18.80
2017,05,27,14,07,18.90
2017,05,27,14,08,19.10
2017,05,27,14,09,19.20
2017,05,27,14,10,19.40
2017,05,27,14,11,19.50
2017,05,27,14,12,19.60
2017,05,27,14,13,19.70
2017,05,27,14,14,19.70
2017,05,27,14,15,19.70
2017,05,27,14,16,19.60
2017,05,27,14,17,19.60
2017,05,27,14,18,19.60
2017,05,27,14,19,19.60
2017,05,27,14,20,19.60
2017,05,27,14,21,19.60
2017,05,27,14,22,19.50
2017,05,27,14,23,19.50
2017,05,27,14,24,19.50
2017,05,27,14,25,19.50
2017,05,27,14,26,19.40
2017,05,27,14,27,19.40
2017,05,27,14,28,19.30
2017,05,27,14,29,19.20
2017,05,27,14,30,19.10
2017,05,27,14,31,19.10
2017,05,27,14,32,19.10
2017,05,27,14,33,19.10
2017,05,27,14,34,19.10
2017,05,27,14,35,19.10
2017,05,27,14,36,19.10
2017,05,27,14,37,19.10
2017,05,27,14,38,19.20
2017,05,27,14,39,19.30
2017,05,27,14,40,19.40
2017,05,27,14,41,19.50
2017,05,27,14,42,19.60
2017,05,27,14,43,19.70
2017,05,27,14,44,19.80
2017,05,27,14,45,19.90
2017,05,27,14,46,19.90
2017,05,27,14,47,20.00
2017,05,27,14,48,20.10
2017,05,27,14,49,20.10
2017,05,27,14,50,20.10
2017,05,27,14,51,20.20
2017,05,27,14,52,20.20
2017,05,27,14,53,20.20
2017,05,27,14,54,20.20
2017,05,27,14,55,20.30
2017,05,27,14,56,20.50
2017,05,27,14,57,20.60
2017,05,27,14,58,20.80
2017,05,27,14,59,20.90
2017,05,27,15,00,21.00
2017,05,27,15,01,21.00
2017,05,27,15,02,21.10
2017,05,27,15,03,21.20
2017,05,27,15,04,21.20
2017,05,27,15,05,21.30
2017,05,27,15,06,21.30
2017,05,27,15,07,21.30
2017,05,27,15,08,21.30
2017,05,27,15,09,21.30
2017,05,27,15,10,21.30
2017,05,27,15,11,21.30
2017,05,27,15,12,21.30
2017,05,27,15,13,21.30
2017,05,27,15,14,21.30
2017,05,27,15,15,21.30
2017,05,27,15,16,21.30
2017,05,27,15,17,21.30
2017,05,27,15,18,21.30
2017,05,27,15,19,21.30
2017,05,27,15,20,21.30
2017,05,27,15,21,21.30
2017,05,27,15,22,21.30
2017,05,27,15,23,21.30
2017,05,27,15,24,21.40
2017,05,27,15,25,21.40
2017,05,27,15,26,21.40
2017,05,27,15,27,21.40
2017,05,27,15,28,21.40
2017,05,27,15,29,21.50
2017,05,27,15,30,21.60
2017,05,27,15,31,21.60
2017,05,27,15,32,21.60
2017,05,27,15,33,21.60
2017,05,27,15,34,21.60
2017,05,27,15,35,21.60
2017,05,27,15,36,21.60
2017,05,27,15,37,21.60
2017,05,27,15,38,21.60
2017,05,27,15,39,21.60
2017,05,27,15,40,21.50
2017,05,27,15,41,21.40
2017,05,27,15,42,21.50
2017,05,27,15,43,21.60
2017,05,27,15,44,21.60
2017,05,27,15,45,21.60
2017,05,27,15,46,21.50
2017,05,27,15,47,21.40
2017,05,27,15,48,21.30
2017,05,27,15,49,21.30
2017,05,27,15,50,21.30
2017,05,27,15,51,21.20
2017,05,27,15,52,21.20
2017,05,27,15,53,21.20
2017,05,27,15,54,21.20
2017,05,27,15,55,21.30
2017,05,27,15,56,21.40
2017,05,27,15,57,21.60
2017,05,27,15,58,21.80
2017,05,27,15,59,21.90
2017,05,27,16,00,22.00
2017,05,27,16,01,22.20
2017,05,27,16,02,22.30
2017,05,27,16,03,22.40
2017,05,27,16,04,22.50
2017,05,27,16,05,22.60
2017,05,27,16,06,22.70
2017,05,27,16,07,22.80
2017,05,27,16,08,22.90
2017,05,27,16,09,22.90
2017,05,27,16,10,23.00
2017,05,27,16,11,22.90
2017,05,27,16,12,23.00
2017,05,27,16,13,23.00
2017,05,27,16,14,22.90
2017,05,27,16,15,23.00
2017,05,27,16,16,23.10
2017,05,27,16,17,23.10
2017,05,27,16,18,23.10
2017,05,27,16,19,23.10
2017,05,27,16,20,23.10
2017,05,27,16,21,23.10
2017,05,27,16,22,23.10
2017,05,27,16,23,23.10
2017,05,27,16,24,23.10
2017,05,27,16,25,23.20
2017,05,27,16,26,23.30
2017,05,27,16,27,23.40
2017,05,27,16,28,23.40
2017,05,27,16,29,23.50
2017,05,27,16,30,23.60
2017,05,27,16,31,23.60
2017,05,27,16,32,23.70
2017,05,27,16,33,23.60
2017,05,27,16,34,23.60
2017,05,27,16,35,23.60
2017,05,27,16,36,23.60
2017,05,27,16,37,23.60
2017,05,27,16,38,23.50
2017,05,27,16,39,23.40
2017,05,27,16,40,23.40
2017,05,27,16,41,23.30
2017,05,27,16,42,23.30
2017,05,27,16,43,23.30
2017,05,27,16,44,23.30
2017,05,27,16,45,23.20
2017,05,27,16,46,23.30
2017,05,27,16,47,23.30
2017,05,27,16,48,23.30
2017,05,27,16,49,23.30
2017,05,27,16,50,23.20
2017,05,27,16,51,23.20
2017,05,27,16,52,23.20
2017,05,27,16,53,23.20
2017,05,27,16,54,23.20
2017,05,27,16,55,23.20
2017,05,27,16,56,23.20
2017,05,27,16,57,23.20
2017,05,27,16,58,23.20
2017,05,27,16,59,23.20
2017,05,27,17,00,23.30
2017,05,27,17,01,23.30
2017,05,27,17,02,23.30
2017,05,27,17,03,23.40
2017,05,27,17,04,23.40
2017,05,27,17,05,23.40
2017,05,27,17,06,23.40
2017,05,27,17,07,23.40
2017,05,27,17,08,23.40
2017,05,27,17,09,23.50
2017,05,27,17,10,23.60
2017,05,27,17,11,23.60
2017,05,27,17,12,23.70
2017,05,27,17,13,23.70
2017,05,27,17,14,23.70
2017,05,27,17,15,23.90
2017,05,27,17,16,24.00
2017,05,27,17,17,24.20
2017,05,27,17,18,24.40
2017,05,27,17,19,24.60